When you browse on this site, cookies collect data to enhance your experience and personalize the content and advertising you see.
Visit our Privacy Policy to learn more. By continuing to use the site, you agree to this use of cookies and data.

Meteo pe oră la Alifanov

Astăzi, 7 August, Vineri

Timp Temperatura Precipitaţii Vânt Presiune Umiditate
00:00 +27°C° 0 mm 4 m/s 757 mmHg 61%
01:00 +27°C° 0 mm 3 m/s 757 mmHg 64%
02:00 +26°C° 0 mm 3 m/s 757 mmHg 66%
03:00 +26°C° 0 mm 3 m/s 757 mmHg 64%
04:00 +26°C° 0 mm 3 m/s 757 mmHg 66%
05:00 +25°C° 0 mm 3 m/s 757 mmHg 68%
06:00 +25°C° 0 mm 3 m/s 757 mmHg 70%
07:00 +27°C° 0 mm 3 m/s 757 mmHg 63%
08:00 +30°C° 0 mm 4 m/s 758 mmHg 57%
09:00 +33°C° 0 mm 4 m/s 758 mmHg 49%
10:00 +34°C° 0 mm 4 m/s 758 mmHg 45%
11:00 +35°C° 0 mm 5 m/s 757 mmHg 40%
12:00 +36°C° 0 mm 5 m/s 757 mmHg 35%
13:00 +36°C° 0 mm 5 m/s 757 mmHg 34%
14:00 +36°C° 0 mm 5 m/s 757 mmHg 34%
15:00 +37°C° 0 mm 5 m/s 757 mmHg 33%
16:00 +36°C° 0 mm 5 m/s 756 mmHg 33%
17:00 +35°C° 0 mm 5 m/s 756 mmHg 34%
18:00 +35°C° 0 mm 5 m/s 756 mmHg 34%
19:00 +33°C° 0 mm 5 m/s 756 mmHg 38%
20:00 +30°C° 0 mm 5 m/s 757 mmHg 43%
21:00 +28°C° 0 mm 5 m/s 757 mmHg 47%
22:00 +27°C° 0 mm 5 m/s 757 mmHg 49%
23:00 +26°C° 0 mm 4 m/s 757 mmHg 52%

Mâine, 8 August, Sâmbătă

Timp Temperatura Precipitaţii Vânt Presiune Umiditate
00:00 +25°C° 0 mm 4 m/s 756 mmHg 55%
01:00 +23°C° 0 mm 4 m/s 756 mmHg 60%
02:00 +23°C° 0 mm 4 m/s 756 mmHg 65%
03:00 +22°C° 0 mm 4 m/s 756 mmHg 70%
04:00 +22°C° 0 mm 4 m/s 756 mmHg 72%
05:00 +22°C° 0 mm 4 m/s 756 mmHg 74%
06:00 +22°C° 0 mm 4 m/s 756 mmHg 76%
07:00 +23°C° 0 mm 4 m/s 756 mmHg 70%
08:00 +26°C° 0 mm 5 m/s 756 mmHg 64%
09:00 +28°C° 0 mm 5 m/s 756 mmHg 57%
10:00 +29°C° 0 mm 5 m/s 756 mmHg 52%
11:00 +30°C° 0 mm 6 m/s 756 mmHg 47%
12:00 +32°C° 0 mm 6 m/s 756 mmHg 42%
13:00 +32°C° 0 mm 6 m/s 755 mmHg 41%
14:00 +32°C° 0 mm 6 m/s 755 mmHg 39%
15:00 +33°C° 0 mm 6 m/s 755 mmHg 37%
16:00 +32°C° 0 mm 6 m/s 755 mmHg 38%
17:00 +30°C° 0 mm 6 m/s 754 mmHg 38%
18:00 +30°C° 0 mm 6 m/s 754 mmHg 38%
19:00 +28°C° 0 mm 6 m/s 754 mmHg 41%
20:00 +26°C° 0 mm 5 m/s 755 mmHg 44%
21:00 +25°C° 0 mm 5 m/s 755 mmHg 48%
22:00 +23°C° 0 mm 5 m/s 755 mmHg 50%
23:00 +22°C° 0 mm 5 m/s 755 mmHg 52%

Poimâine, 9 August, Duminică

Timp Temperatura Precipitaţii Vânt Presiune Umiditate
00:00 +22°C° 0 mm 5 m/s 755 mmHg 55%
01:00 +21°C° 0 mm 4 m/s 755 mmHg 58%
02:00 +20°C° 0 mm 4 m/s 755 mmHg 62%
03:00 +19°C° 0 mm 4 m/s 755 mmHg 65%
04:00 +19°C° 0 mm 4 m/s 755 mmHg 66%
05:00 +19°C° 0 mm 4 m/s 755 mmHg 67%
06:00 +19°C° 0 mm 4 m/s 755 mmHg 68%
07:00 +20°C° 0 mm 4 m/s 755 mmHg 61%
08:00 +22°C° 0 mm 4 m/s 755 mmHg 54%
09:00 +25°C° 0 mm 5 m/s 755 mmHg 46%
10:00 +26°C° 0 mm 5 m/s 755 mmHg 43%
11:00 +28°C° 0 mm 5 m/s 755 mmHg 39%
12:00 +29°C° 0 mm 5 m/s 755 mmHg 35%
13:00 +29°C° 0 mm 5 m/s 754 mmHg 34%
14:00 +30°C° 0 mm 5 m/s 754 mmHg 33%
15:00 +32°C° 0 mm 5 m/s 754 mmHg 32%
16:00 +30°C° 0 mm 5 m/s 754 mmHg 34%
17:00 +29°C° 0 mm 5 m/s 754 mmHg 36%
18:00 +29°C° 0 mm 5 m/s 753 mmHg 38%
19:00 +27°C° 0 mm 5 m/s 754 mmHg 44%
20:00 +25°C° 0 mm 4 m/s 754 mmHg 49%
21:00 +24°C° 0 mm 3 m/s 754 mmHg 54%
22:00 +22°C° 0 mm 3 m/s 754 mmHg 56%
23:00 +22°C° 0 mm 3 m/s 754 mmHg 59%

10 August, Luni

Timp Temperatura Precipitaţii Vânt Presiune Umiditate
00:00 +21°C° 0 mm 3 m/s 754 mmHg 61%
01:00 +20°C° 0 mm 3 m/s 754 mmHg 63%
02:00 +20°C° 0 mm 3 m/s 754 mmHg 64%
03:00 +19°C° 0 mm 3 m/s 754 mmHg 66%
04:00 +19°C° 0 mm 3 m/s 754 mmHg 67%
05:00 +19°C° 0 mm 2 m/s 754 mmHg 67%
06:00 +19°C° 0 mm 2 m/s 754 mmHg 67%
07:00 +21°C° 0 mm 3 m/s 754 mmHg 60%
08:00 +24°C° 0 mm 3 m/s 754 mmHg 53%
09:00 +26°C° 0 mm 3 m/s 754 mmHg 45%
10:00 +27°C° 0 mm 3 m/s 754 mmHg 42%
11:00 +28°C° 0 mm 3 m/s 754 mmHg 38%
12:00 +29°C° 0 mm 3 m/s 754 mmHg 34%
13:00 +30°C° 0 mm 3 m/s 754 mmHg 33%
14:00 +30°C° 0 mm 3 m/s 754 mmHg 31%
15:00 +31°C° 0 mm 3 m/s 753 mmHg 30%
16:00 +31°C° 0 mm 3 m/s 753 mmHg 30%
17:00 +30°C° 0 mm 3 m/s 753 mmHg 31%
18:00 +30°C° 0 mm 3 m/s 753 mmHg 32%
19:00 +28°C° 0 mm 3 m/s 753 mmHg 36%
20:00 +27°C° 0 mm 2 m/s 753 mmHg 40%
21:00 +25°C° 0 mm 2 m/s 753 mmHg 44%
22:00 +24°C° 0 mm 2 m/s 753 mmHg 47%
23:00 +24°C° 0 mm 2 m/s 754 mmHg 49%

11 August, Marţi

Timp Temperatura Precipitaţii Vânt Presiune Umiditate
00:00 +23°C° 0 mm 2 m/s 754 mmHg 52%
01:00 +21°C° 0 mm 2 m/s 754 mmHg 54%
02:00 +21°C° 0 mm 2 m/s 754 mmHg 56%
03:00 +22°C° 0 mm 1 m/s 754 mmHg 57%
04:00 +22°C° 0 mm 1 m/s 754 mmHg 59%
05:00 +22°C° 0 mm 1 m/s 754 mmHg 60%
06:00 +21°C° 0 mm 1 m/s 754 mmHg 61%
07:00 +24°C° 0 mm 1 m/s 754 mmHg 55%
08:00 +26°C° 0 mm 1 m/s 754 mmHg 49%
09:00 +28°C° 0 mm 1 m/s 754 mmHg 42%
10:00 +29°C° 0 mm 1 m/s 754 mmHg 40%
11:00 +30°C° 0 mm 1 m/s 754 mmHg 38%
12:00 +30°C° 0 mm 1 m/s 754 mmHg 36%
13:00 +30°C° 0 mm 2 m/s 753 mmHg 36%
14:00 +30°C° 0 mm 2 m/s 753 mmHg 37%
15:00 +30°C° 0 mm 2 m/s 753 mmHg 38%
16:00 +30°C° 0 mm 2 m/s 753 mmHg 38%
17:00 +30°C° 0 mm 2 m/s 753 mmHg 38%
18:00 +30°C° 0 mm 2 m/s 753 mmHg 39%
19:00 +28°C° 0 mm 2 m/s 753 mmHg 43%
20:00 +27°C° 0 mm 2 m/s 753 mmHg 47%
21:00 +26°C° 0 mm 2 m/s 753 mmHg 51%
22:00 +25°C° 0.2 mm 2 m/s 753 mmHg 54%
23:00 +24°C° 0.2 mm 2 m/s 753 mmHg 56%

12 August, Miercuri

Timp Temperatura Precipitaţii Vânt Presiune Umiditate
00:00 +23°C° 0.2 mm 2 m/s 753 mmHg 59%
01:00 +23°C° 0.3 mm 1 m/s 753 mmHg 61%
02:00 +22°C° 0.3 mm 1 m/s 753 mmHg 64%
03:00 +22°C° 0.3 mm 1 m/s 753 mmHg 66%
04:00 +22°C° 0 mm 1 m/s 753 mmHg 66%
05:00 +22°C° 0 mm 1 m/s 753 mmHg 66%
06:00 +22°C° 0 mm 1 m/s 753 mmHg 66%
07:00 +24°C° 0 mm 1 m/s 753 mmHg 60%
08:00 +26°C° 0 mm 1 m/s 753 mmHg 54%
09:00 +28°C° 0 mm 1 m/s 753 mmHg 47%
10:00 +29°C° 0 mm 2 m/s 753 mmHg 43%
11:00 +30°C° 0 mm 3 m/s 752 mmHg 39%
12:00 +31°C° 0 mm 3 m/s 752 mmHg 35%
13:00 +33°C° 0 mm 3 m/s 752 mmHg 34%
14:00 +33°C° 0 mm 3 m/s 752 mmHg 32%
15:00 +33°C° 0 mm 3 m/s 751 mmHg 30%
16:00 +33°C° 0 mm 3 m/s 751 mmHg 31%
17:00 +33°C° 0 mm 3 m/s 751 mmHg 32%
18:00 +31°C° 0 mm 3 m/s 751 mmHg 32%
19:00 +30°C° 0 mm 2 m/s 751 mmHg 35%
20:00 +28°C° 0 mm 1 m/s 751 mmHg 39%
21:00 +27°C° 0 mm 1 m/s 751 mmHg 42%
22:00 +26°C° 0.1 mm 1 m/s 751 mmHg 45%
23:00 +25°C° 0.1 mm 1 m/s 751 mmHg 48%
Arată mai mult